Tracking 30102 objects as of 12-Dec-2024
HD Live streaming from Space Station
objects crossing your sky now

GB 1

Track GB 1 now!
10-day predictions
GB 1 is classified as:


NORAD ID: 14143
Int'l Code: 1983-056C
Perigee: 417.9 km
Apogee: 1,573.7 km
Inclination: 63.3 °
Period: 104.9 minutes
Semi major axis: 7366 km
RCS: Unknown
Launch date: June 9, 1983
Source: United States (US)
Launch site: AIR FORCE WESTERN TEST RANGE (AFWTR)
Your satellite tracking list
Your tracking list is empty




NASA's NSSDC Master Catalog

Two Line Element Set (TLE):
1 14143U 83056C   24347.33961668  .00004217  00000-0  43150-3 0  9997
2 14143  63.3062 331.2394 0784443 122.0795 245.8876 13.73050926270674
Source of the keplerian elements: McCants